Lid_Strength_Index
4 3 3 3 3 3 3 3 3 2 2 2 2 1 2 2 2 3 2 3 3 3
3 3 3 3 3 3 3 2 2 2 2 2 2 1 2 2 2 2 2 2 3 3
3 3 3 3 3 3 3 2 2 2 2 2 2 2 2 2 2 3 2 2 2 2
3 3 3 3 3 2 2 2 2 2 2 2 1 2 2 2 2 2 2 2 2 2
3 2 3 3 3 3 3 3 2 2 1 1 1 2 2 2 2 2 2 2 2 2
2 2 3 3 2 3 2 2 2 2 1 1 1 2 2 2 2 2 2 2 2 2
2 2 3 2 2 2 2 3 2 1 1 1 1 1 1 1 2 2 2 2 2 1
2 2 2 2 2 2 2 2 1 1 2 3 2 3 1 1 2 2 2 2 1 1
2 2 2 2 2 1 2 1 1 2 3 3 3 9 7 3 2 2 2 2 2 3
2 2 2 2 2 2 2 2 2 3 4 4 4 10 9 7 1 2 2 2 2 3
2 2 2 2 2 2 2 3 3 4 4 4 5 10 10 7 1 2 2 2 2 2
2 2 2 2 3 3 3 3 3 4 4 4 4 11 10 4 2 2 2 2 2 2
2 2 2 3 3 3 3 3 3 3 4 5 4 11 11 4 2 2 2 2 3 7
2 2 2 3 3 3 2 3 3 4 4 3 4 6 10 8 3 2 2 3 3 5